Simultaneous Nadir Overpasses (SNOs) Predictions

Prediction of SNOs between AQUA and METOP-A Satellite Orbit:

Table of predicted SNOs for the next 14.0 days since TLE Epoch: 10/15/2017
Index Date (AQUA) Time (AQUA) Lat,Lon (AQUA) SZA (AQUA ) Date (METOP-A) Time (METOP-A) Lat,Lon (METOP-A) SZA (METOP-A ) Distance(km) Time Diff (sec)
1 10/16/2017 11:23:27 -73.94,-176.93 97.10 10/16/2017 11:22:20 -73.93,-177.03 97.09 3.00 67
2 10/16/2017 12:12:56 74.01, -9.47 83.00 10/16/2017 12:12:58 74.04, -9.44 83.03 2.75 2
3 10/16/2017 13:02:24 -74.14, 157.89 96.86 10/16/2017 13:03:37 -74.15, 158.18 96.85 8.98 73
4 10/19/2017 06:57:42 -73.95,-110.53 96.06 10/19/2017 06:56:39 -73.95,-110.58 96.05 1.67 63
5 10/19/2017 07:47:11 74.03, 56.92 84.04 10/19/2017 07:47:17 74.05, 57.00 84.06 3.29 6
6 10/19/2017 08:36:42 -74.31,-136.07 95.67 10/19/2017 08:37:53 -74.32,-135.00 95.67 32.06 71
7 10/22/2017 02:31:56 -73.98, -44.14 95.03 10/22/2017 02:30:57 -73.96, -44.14 95.04 1.32 59
8 10/22/2017 03:21:24 74.01, 123.41 85.03 10/22/2017 03:21:36 74.02, 123.32 85.03 2.70 12
9 10/22/2017 04:10:59 -74.49, -70.06 94.48 10/22/2017 04:12:08 -74.48, -68.18 94.51 55.82 69
10 10/24/2017 22:06:10 -73.96, 22.33 94.06 10/24/2017 22:05:16 -73.98, 22.30 94.04 1.93 54
11 10/24/2017 22:55:39 74.05,-170.24 86.05 10/24/2017 22:55:55 74.03,-170.24 86.02 3.19 16
12 10/24/2017 23:45:17 -74.67, -4.08 93.30 10/24/2017 23:46:23 -74.68, -1.22 93.32 83.87 66
13 10/27/2017 17:40:25 -74.01, 88.67 93.06 10/27/2017 17:39:35 -73.98, 88.73 93.08 3.32 50
14 10/27/2017 18:29:53 74.06,-103.80 87.01 10/27/2017 18:30:14 74.03,-103.82 86.99 2.58 21




NCC Satellite Simultaneous Nadir Overpasses (SNOs) Prediction Service
